This is the latest recevied weather packets stored in our database for station/object F4IEI-10. If no packets are shown the sender has not sent any weather packets the latest 10 day(s).
| Time | Temp. | Humidity | Pressure | Rain* | Wind** | Luminosity | Snow |
|---|---|---|---|---|---|---|---|
| 1777705114 | 14.44° C | 100% | 1019.4 hPa | - | - | - | - |
| 1777704214 | 13.89° C | 100% | 1019.4 hPa | - | - | - | - |
| 1777703314 | 13.33° C | 100% | 1019.4 hPa | - | - | - | - |
| 1777702414 | 13.33° C | 100% | 1019.3 hPa | - | - | - | - |
| 1777701514 | 13.33° C | 100% | 1019.3 hPa | - | - | - | - |
| 1777700614 | 12.78° C | 100% | 1019.3 hPa | - | - | - | - |
| 1777699714 | 12.78° C | 99% | 1019.3 hPa | - | - | - | - |
| 1777698814 | 12.22° C | 99% | 1019.3 hPa | - | - | - | - |
| 1777697914 | 12.22° C | 99% | 1019.3 hPa | - | - | - | - |
| 1777697014 | 12.22° C | 100% | 1019.3 hPa | - | - | - | - |
| 1777696114 | 12.22° C | 100% | 1019.3 hPa | - | - | - | - |
| 1777695214 | 11.67° C | 100% | 1019.2 hPa | - | - | - | - |
| 1777694314 | 12.22° C | 100% | 1019.3 hPa | - | - | - | - |
| 1777693414 | 12.22° C | 100% | 1019.3 hPa | - | - | - | - |
| 1777692514 | 12.22° C | 100% | 1019.4 hPa | - | - | - | - |
| 1777691621 | 12.22° C | 100% | 1019.6 hPa | - | - | - | - |
| 1777690714 | 12.22° C | 100% | 1019.5 hPa | - | - | - | - |
| 1777689814 | 12.22° C | 100% | 1019.6 hPa | - | - | - | - |
| 1777688914 | 12.22° C | 94% | 1019.8 hPa | - | - | - | - |
| 1777688014 | 12.78° C | 95% | 1019.8 hPa | - | - | - | - |
| 1777687114 | 12.78° C | 100% | 1019.9 hPa | - | - | - | - |
| 1777686214 | 12.78° C | 94% | 1019.9 hPa | - | - | - | - |
| 1777685314 | 13.33° C | 100% | 1020 hPa | - | - | - | - |
| 1777684414 | 13.33° C | 98% | 1020.1 hPa | - | - | - | - |
| 1777683514 | 13.33° C | 96% | 1020 hPa | - | - | - | - |
* Rain since midnight (hover to see other rain measurements)
** Current wind speed in m/s (hover to see current wind gust speed)